Date String (YYYY-MM-DD hh:mm:ss) UTC,Instrument flags,Ambient pressure (hPa),Sample flow (lpm),Bypass flow (lpm),Sample temperature (°C),Ambient temperature (°C),ASC tube jacket temperature (°C),LED temperature (°C),Box temperature (°C),Sample RH (%),Span deviation,Mass concentration (μg/m³),Mass concentration (μg/m³),Mass concentration (μg/m³)
DateTimeUTC,F1_M11,P_M11,Q1_M11,Q2_M11,T1_M11,T2_M11,T3_M11,T4_M11,T5_M11,U1_M11,ZSPAN_M11,X2_M11,X0_M11,X1_M11
2023-05-20 02:00:00,,0838.8,5.00,0.00,27.7,26.1,00.0,36.0,29.3,29.1,0002.4,0101.75,0140.15,0095.99
2023-05-20 02:01:00,,0838.7,5.00,0.00,27.7,26.1,00.0,36.0,29.3,29.1,0002.4,0101.88,0139.64,0096.16
2023-05-20 02:02:00,,0838.7,5.00,0.00,27.7,26.1,00.0,36.0,29.3,29.1,0002.4,0101.98,0139.42,0096.25
2023-05-20 02:03:00,,0838.7,5.00,0.00,27.7,26.1,00.0,36.0,29.3,29.1,0002.4,0102.10,0139.62,0096.38
2023-05-20 02:04:00,,0838.8,5.00,0.00,27.7,26.1,00.0,36.0,29.3,29.1,0002.4,0102.18,0140.14,0096.45
2023-05-20 02:05:00,,0838.7,5.00,0.00,27.7,26.1,00.0,36.0,29.4,29.1,0002.3,0102.19,0140.09,0096.54
2023-05-20 02:06:00,,0838.7,5.00,0.00,27.7,26.2,00.0,36.0,29.4,28.9,0002.4,0102.30,0140.28,0096.68
2023-05-20 02:07:00,,0838.7,5.00,0.00,27.7,26.2,00.0,36.0,29.4,28.8,0002.4,0102.50,0140.25,0096.84
2023-05-20 02:08:00,,0838.8,5.00,0.00,27.7,26.2,00.0,36.1,29.4,28.8,0002.4,0102.58,0140.41,0096.85
2023-05-20 02:09:00,,0838.8,5.00,0.00,27.7,26.2,00.0,36.1,29.4,28.8,0002.4,0102.66,0139.81,0096.91
2023-05-20 02:10:00,,0838.7,4.99,0.00,27.7,26.2,00.0,36.1,29.4,28.7,0002.5,0102.76,0139.67,0097.04
2023-05-20 02:11:00,,0838.7,5.00,0.00,27.7,26.2,00.0,36.1,29.4,28.6,0002.5,0102.73,0139.98,0097.01
2023-05-20 02:12:00,,0838.7,5.00,0.00,27.7,26.2,00.0,36.1,29.4,28.6,0002.5,0102.68,0140.43,0096.89
2023-05-20 02:13:00,,0838.7,5.00,0.00,27.7,26.2,00.0,36.1,29.4,28.5,0002.4,0102.61,0140.75,0096.83
2023-05-20 02:14:00,,0838.7,5.00,0.00,27.7,26.2,00.0,36.1,29.4,28.5,0002.4,0102.69,0141.26,0096.80
2023-05-20 02:15:00,,0838.7,5.00,0.00,27.7,26.2,00.0,36.1,29.4,28.3,0002.4,0102.73,0141.24,0096.83
2023-05-20 02:16:00,,0838.7,5.00,0.00,27.7,26.2,00.0,36.1,29.4,28.3,0002.4,0102.68,0141.78,0096.81
2023-05-20 02:17:00,,0838.7,5.00,0.00,27.7,26.2,00.0,36.1,29.4,28.2,0002.5,0102.59,0142.52,0096.73
2023-05-20 02:18:00,,0838.7,5.00,0.00,27.7,26.2,00.0,36.1,29.4,28.1,0002.4,0102.54,0142.89,0096.72
2023-05-20 02:19:00,,0838.7,5.00,0.00,27.7,26.2,00.0,36.1,29.4,28.1,0002.5,0102.60,0143.10,0096.81
2023-05-20 02:20:00,,0838.7,4.99,0.00,27.7,26.2,00.0,36.1,29.4,28.1,0002.5,0102.55,0143.20,0096.80
2023-05-20 02:21:00,,0838.7,5.00,0.00,27.8,26.2,00.0,36.1,29.4,28.1,0002.5,0102.59,0143.25,0096.77
2023-05-20 02:22:00,,0838.6,5.01,0.00,27.8,26.2,00.0,36.1,29.4,28.1,0002.5,0102.71,0143.21,0096.83
2023-05-20 02:23:00,,0838.7,5.01,0.00,27.7,26.2,00.0,36.1,29.4,28.1,0002.5,0102.76,0142.86,0096.92
2023-05-20 02:24:00,,0838.7,5.01,0.00,27.7,26.2,00.0,36.1,29.4,28.1,0002.4,0102.88,0142.74,0096.97
2023-05-20 02:25:00,,0838.7,5.00,0.00,27.7,26.2,00.0,36.1,29.4,28.1,0002.5,0102.88,0142.07,0097.01
2023-05-20 02:26:00,,0838.7,5.00,0.00,27.8,26.2,00.0,36.1,29.4,28.2,0002.5,0103.00,0141.98,0097.08
2023-05-20 02:27:00,,0838.7,4.99,0.00,27.8,26.2,00.0,36.1,29.4,28.1,0002.5,0103.21,0141.54,0097.14
2023-05-20 02:28:00,,0838.7,5.00,0.00,27.8,26.2,00.0,36.1,29.4,28.1,0002.5,0103.31,0140.78,0097.14
2023-05-20 02:29:00,,0838.8,4.99,0.00,27.8,26.2,00.0,36.1,29.4,28.1,0002.4,0103.41,0140.44,0097.26
2023-05-20 02:30:00,,0838.8,4.99,0.00,27.8,26.3,00.0,36.1,29.5,28.1,0002.3,0103.41,0140.25,0097.25
2023-05-20 02:31:00,,0838.8,5.01,0.00,27.8,26.3,00.0,36.1,29.5,28.1,0002.3,0103.65,0140.62,0097.42
2023-05-20 02:32:00,,0838.8,5.01,0.00,27.8,26.3,00.0,36.1,29.5,28.1,0002.3,0103.85,0140.84,0097.60
2023-05-20 02:33:00,,0838.8,5.01,0.00,27.8,26.3,00.0,36.1,29.5,28.1,0002.4,0104.00,0141.46,0097.72
2023-05-20 02:34:00,,0838.8,4.99,0.00,27.8,26.3,00.0,36.1,29.5,28.1,0002.4,0104.17,0142.41,0097.79
2023-05-20 02:35:00,,0838.8,4.99,0.00,27.8,26.2,00.0,36.1,29.5,28.1,0002.4,0104.21,0143.22,0097.87
2023-05-20 02:36:00,,0838.8,5.00,0.00,27.8,26.2,00.0,36.1,29.5,28.1,0002.4,0104.39,0143.66,0098.03
2023-05-20 02:37:00,,0838.8,5.01,0.00,27.8,26.2,00.0,36.1,29.5,28.1,0002.5,0104.48,0143.71,0098.16
2023-05-20 02:38:00,,0838.8,5.00,0.00,27.8,26.2,00.0,36.2,29.5,28.1,0002.4,0104.51,0144.19,0098.28
2023-05-20 02:39:00,,0838.8,5.00,0.00,27.8,26.2,00.0,36.2,29.5,28.1,0002.4,0104.65,0144.35,0098.51
2023-05-20 02:40:00,,0838.8,5.00,0.00,27.8,26.2,00.0,36.2,29.5,28.1,0002.5,0104.82,0145.51,0098.62
2023-05-20 02:41:00,,0838.8,5.00,0.00,27.8,26.2,00.0,36.2,29.5,28.1,0002.5,0105.01,0146.63,0098.79
2023-05-20 02:42:00,,0838.8,5.00,0.00,27.8,26.2,00.0,36.2,29.5,28.2,0002.5,0105.02,0146.80,0098.79
2023-05-20 02:43:00,,0838.8,5.00,0.00,27.8,26.2,00.0,36.2,29.5,28.2,0002.5,0105.01,0146.84,0098.79
2023-05-20 02:44:00,,0838.8,4.99,0.00,27.8,26.2,00.0,36.2,29.4,28.2,0002.5,0105.09,0146.74,0098.87
2023-05-20 02:45:00,,0838.8,5.00,0.00,27.8,26.2,00.0,36.2,29.4,28.2,0002.5,0105.17,0146.23,0099.00
2023-05-20 02:46:00,,0838.8,5.00,0.00,27.8,26.2,00.0,36.2,29.4,28.2,0002.6,0105.34,0145.76,0099.13
2023-05-20 02:47:00,,0838.8,4.99,0.00,27.8,26.2,00.0,36.2,29.4,28.2,0002.6,0105.46,0146.11,0099.16
2023-05-20 02:48:00,,0838.8,5.00,0.00,27.8,26.2,00.0,36.2,29.4,28.2,0002.6,0105.59,0146.85,0099.15
2023-05-20 02:49:00,,0838.8,5.01,0.00,27.8,26.2,00.0,36.2,29.4,28.3,0002.6,0105.56,0146.90,0099.15
2023-05-20 02:50:00,,0838.8,5.01,0.00,27.8,26.2,00.0,36.2,29.4,28.2,0002.6,0105.59,0147.33,0099.17
2023-05-20 02:51:00,,0838.8,5.00,0.00,27.8,26.2,00.0,36.2,29.4,28.2,0002.7,0105.63,0147.44,0099.18
2023-05-20 02:52:00,,0838.8,5.00,0.00,27.8,26.2,00.0,36.2,29.5,28.2,0002.7,0105.65,0146.78,0099.11
2023-05-20 02:53:00,,0838.8,5.00,0.00,27.8,26.3,00.0,36.2,29.5,28.1,0002.7,0105.75,0146.74,0099.20
2023-05-20 02:54:00,,0838.8,4.99,0.00,27.8,26.3,00.0,36.2,29.5,28.1,0002.7,0105.77,0147.19,0099.17
2023-05-20 02:55:00,,0838.8,4.99,0.00,27.8,26.3,00.0,36.2,29.5,28.1,0002.7,0105.73,0147.24,0099.12
2023-05-20 02:56:00,,0838.8,5.01,0.00,27.8,26.3,00.0,36.2,29.5,28.1,0002.7,0105.70,0147.16,0099.07
2023-05-20 02:57:00,,0838.8,5.01,0.00,27.8,26.4,00.0,36.2,29.5,28.1,0002.7,0105.56,0146.88,0098.97
2023-05-20 02:58:00,,0838.8,5.01,0.00,27.9,26.4,00.0,36.2,29.5,28.0,0002.8,0105.45,0146.22,0098.98
2023-05-20 02:59:00,,0838.8,5.01,0.00,27.9,26.4,00.0,36.2,29.5,28.0,0002.8,0105.33,0145.61,0098.93
